Kenai, AK

3:43 AM AKST on November 21, 2017 (GMT -0900)
Kenai Municipal

Weather History for PAEN - January, 2014

Change the Weather History Date:

Friday, January 31, 2014

  Actual Average Record
Temperature  
Mean Temperature 23 °F -  
Max Temperature 28 °F 24 °F 41 °F (2007)
Min Temperature 18 °F 9 °F -26 °F (1989)
Degree Days  
Heating Degree Days 42    
Moisture  
Dew Point 18 °F    
Average Humidity 86    
Maximum Humidity 96    
Minimum Humidity 69    
Precipitation  
Precipitation 0.00 in - - ()
Sea Level Pressure  
Sea Level Pressure 30.27 in    
Wind  
Wind Speed 5 mph (NE)    
Max Wind Speed 9 mph    
Max Gust Speed -    
Visibility 10 miles    
Events      
Averages and records for this station are not official NWS values.
T = Trace of Precipitation, MM = Missing Value Source: NWS Daily Summary

Daily Weather History Graph

Daily Weather History Graph

Search for Another Location

Airport or City:

Trip Planner

Search our weather history database for the weather conditions in past years. The results will help you decide how hot, cold, wet, or windy it might be!

Date:

Astronomy

Jan. 31, 2014 Rise Set
Actual Time 9:23 AM AKST 5:14 PM AKST
Civil Twilight 8:35 AM AKST 6:02 PM AKST
Nautical Twilight 7:43 AM AKST 6:54 PM AKST
Astronomical Twilight 6:53 AM AKST 7:44 PM AKST
Moon 9:07 AM AKST (1/31) 7:30 PM AKST (1/31)
Length of Visible Light 9h 27m
Length of Day
7h 50m
New Moon, 1% of the Moon is Illuminated
Jan 31
New Moon
Feb 6
First Quarter
Feb 14
Full
Feb 22
Last Quarter
Feb 28
New

Hourly Weather History & Observations

Time (AKST) Temp. Windchill Dew Point Humidity Pressure Visibility Wind Dir Wind Speed Gust Speed Precip Events Conditions
12:53 AM 19.9 °F 12.1 °F 16.0 °F 85% 30.24 in 10.0 mi NE 5.8 mph - N/A   Clear
1:53 AM 19.9 °F - 18.0 °F 92% 30.24 in 10.0 mi Calm Calm - N/A   Clear
2:53 AM 21.0 °F 13.4 °F 18.0 °F 88% 30.24 in 10.0 mi NNE 5.8 mph - N/A   Clear
3:53 AM 19.9 °F 13.4 °F 18.0 °F 92% 30.25 in 10.0 mi NE 4.6 mph - N/A   Clear
4:53 AM 19.0 °F 12.3 °F 18.0 °F 96% 30.24 in 10.0 mi NNE 4.6 mph - N/A   Clear
5:53 AM 19.0 °F 12.3 °F 17.1 °F 92% 30.24 in 10.0 mi NNE 4.6 mph - N/A   Clear
6:53 AM 19.0 °F 11.1 °F 15.1 °F 85% 30.25 in 10.0 mi NE 5.8 mph - N/A   Clear
7:53 AM 19.0 °F 11.1 °F 16.0 °F 88% 30.25 in 10.0 mi NNE 5.8 mph - N/A   Clear
8:53 AM 18.0 °F 8.7 °F 16.0 °F 92% 30.25 in 10.0 mi NE 6.9 mph - N/A   Clear
9:53 AM 19.0 °F 11.1 °F 17.1 °F 92% 30.27 in 10.0 mi NE 5.8 mph - N/A   Clear
10:53 AM 19.0 °F 9.0 °F 18.0 °F 96% 30.26 in 10.0 mi NE 8.1 mph - N/A   Clear
11:53 AM 23.0 °F 13.9 °F 18.0 °F 81% 30.27 in 10.0 mi NNE 8.1 mph - N/A   Clear
12:53 PM 25.0 °F 18.1 °F 19.0 °F 78% 30.28 in 10.0 mi NE 5.8 mph - N/A   Clear
1:53 PM 27.0 °F 18.0 °F 19.0 °F 72% 30.27 in 10.0 mi NE 9.2 mph - N/A   Clear
2:53 PM 27.0 °F 20.5 °F 19.9 °F 75% 30.28 in 10.0 mi NE 5.8 mph - N/A   Clear
3:53 PM 28.0 °F - 19.0 °F 69% 30.28 in 10.0 mi Calm Calm - N/A   Clear
4:53 PM 25.0 °F 18.1 °F 18.0 °F 75% 30.29 in 10.0 mi NNE 5.8 mph - N/A   Clear
5:53 PM 23.0 °F 14.7 °F 18.0 °F 81% 30.29 in 10.0 mi NNE 6.9 mph - N/A   Clear
6:53 PM 21.9 °F 14.5 °F 18.0 °F 85% 30.30 in 10.0 mi NE 5.8 mph - N/A   Clear
7:53 PM 21.0 °F 14.6 °F 18.0 °F 88% 30.30 in 8.0 mi NE 4.6 mph - N/A   Clear
8:53 PM 21.0 °F 16.2 °F 18.0 °F 88% 30.30 in 10.0 mi NNE 3.5 mph - N/A   Clear
9:53 PM 19.9 °F 14.9 °F 18.0 °F 92% 30.31 in 10.0 mi North 3.5 mph - N/A   Clear
10:53 PM 19.0 °F - 17.1 °F 92% 30.32 in 10.0 mi Calm Calm - N/A   Clear
11:53 PM 19.0 °F 12.3 °F 18.0 °F 96% 30.32 in 10.0 mi NNE 4.6 mph - N/A   Clear